Year,Month,Day,Hour,Minute,Value (Times are PST for temperature in C)
2012,03,30,00,00,4.70
2012,03,30,00,01,4.70
2012,03,30,00,02,4.70
2012,03,30,00,03,4.70
2012,03,30,00,04,4.70
2012,03,30,00,05,4.70
2012,03,30,00,06,4.80
2012,03,30,00,07,4.80
2012,03,30,00,08,4.80
2012,03,30,00,09,4.80
2012,03,30,00,10,4.80
2012,03,30,00,11,4.80
2012,03,30,00,12,4.80
2012,03,30,00,13,4.80
2012,03,30,00,14,4.80
2012,03,30,00,15,4.80
2012,03,30,00,16,4.80
2012,03,30,00,17,4.80
2012,03,30,00,18,4.80
2012,03,30,00,19,4.80
2012,03,30,00,20,4.80
2012,03,30,00,21,4.80
2012,03,30,00,22,4.80
2012,03,30,00,23,4.80
2012,03,30,00,24,4.80
2012,03,30,00,25,4.80
2012,03,30,00,26,4.80
2012,03,30,00,27,4.80
2012,03,30,00,28,4.80
2012,03,30,00,29,4.80
2012,03,30,00,30,4.80
2012,03,30,00,31,4.80
2012,03,30,00,32,4.80
2012,03,30,00,33,4.80
2012,03,30,00,34,4.80
2012,03,30,00,35,4.80
2012,03,30,00,36,4.80
2012,03,30,00,37,4.80
2012,03,30,00,38,4.80
2012,03,30,00,39,4.80
2012,03,30,00,40,4.80
2012,03,30,00,41,4.80
2012,03,30,00,42,4.80
2012,03,30,00,43,4.80
2012,03,30,00,44,4.80
2012,03,30,00,45,4.80
2012,03,30,00,46,4.80
2012,03,30,00,47,4.80
2012,03,30,00,48,4.80
2012,03,30,00,49,4.80
2012,03,30,00,50,4.80
2012,03,30,00,51,4.80
2012,03,30,00,52,4.80
2012,03,30,00,53,4.80
2012,03,30,00,54,4.80
2012,03,30,00,55,4.80
2012,03,30,00,56,4.80
2012,03,30,00,57,4.80
2012,03,30,00,58,4.80
2012,03,30,00,59,4.80
2012,03,30,01,00,4.80
2012,03,30,01,01,4.80
2012,03,30,01,02,4.80
2012,03,30,01,03,4.80
2012,03,30,01,04,4.80
2012,03,30,01,05,4.80
2012,03,30,01,06,4.90
2012,03,30,01,07,4.90
2012,03,30,01,08,4.90
2012,03,30,01,09,4.90
2012,03,30,01,10,4.90
2012,03,30,01,11,4.90
2012,03,30,01,12,4.90
2012,03,30,01,13,4.90
2012,03,30,01,14,4.90
2012,03,30,01,15,4.90
2012,03,30,01,16,5.00
2012,03,30,01,17,5.00
2012,03,30,01,18,5.00
2012,03,30,01,19,5.10
2012,03,30,01,20,5.10
2012,03,30,01,21,5.10
2012,03,30,01,22,5.10
2012,03,30,01,23,5.10
2012,03,30,01,24,5.10
2012,03,30,01,25,5.10
2012,03,30,01,26,5.10
2012,03,30,01,27,5.10
2012,03,30,01,28,5.10
2012,03,30,01,29,5.10
2012,03,30,01,30,5.10
2012,03,30,01,31,5.10
2012,03,30,01,32,5.10
2012,03,30,01,33,5.10
2012,03,30,01,34,5.10
2012,03,30,01,35,5.10
2012,03,30,01,36,5.10
2012,03,30,01,37,5.10
2012,03,30,01,38,5.10
2012,03,30,01,39,5.10
2012,03,30,01,40,5.10
2012,03,30,01,41,5.20
2012,03,30,01,42,5.20
2012,03,30,01,43,5.20
2012,03,30,01,44,5.20
2012,03,30,01,45,5.20
2012,03,30,01,46,5.20
2012,03,30,01,47,5.20
2012,03,30,01,48,5.20
2012,03,30,01,49,5.20
2012,03,30,01,50,5.20
2012,03,30,01,51,5.20
2012,03,30,01,52,5.20
2012,03,30,01,53,5.20
2012,03,30,01,54,5.20
2012,03,30,01,55,5.20
2012,03,30,01,56,5.20
2012,03,30,01,57,5.20
2012,03,30,01,58,5.20
2012,03,30,01,59,5.20
2012,03,30,02,00,5.20
2012,03,30,02,01,5.20
2012,03,30,02,02,5.20
2012,03,30,02,03,5.20
2012,03,30,02,04,5.20
2012,03,30,02,05,5.20
2012,03,30,02,06,5.20
2012,03,30,02,07,5.20
2012,03,30,02,08,5.20
2012,03,30,02,09,5.20
2012,03,30,02,10,5.20
2012,03,30,02,11,5.20
2012,03,30,02,12,5.20
2012,03,30,02,13,5.20
2012,03,30,02,14,5.20
2012,03,30,02,15,5.20
2012,03,30,02,16,5.20
2012,03,30,02,17,5.20
2012,03,30,02,18,5.20
2012,03,30,02,19,5.20
2012,03,30,02,20,5.20
2012,03,30,02,21,5.20
2012,03,30,02,22,5.20
2012,03,30,02,23,5.20
2012,03,30,02,24,5.20
2012,03,30,02,25,5.20
2012,03,30,02,26,5.20
2012,03,30,02,27,5.20
2012,03,30,02,28,5.20
2012,03,30,02,29,5.20
2012,03,30,02,30,5.20
2012,03,30,02,31,5.20
2012,03,30,02,32,5.20
2012,03,30,02,33,5.20
2012,03,30,02,34,5.20
2012,03,30,02,35,5.20
2012,03,30,02,36,5.20
2012,03,30,02,37,5.20
2012,03,30,02,38,5.20
2012,03,30,02,39,5.20
2012,03,30,02,40,5.20
2012,03,30,02,41,5.20
2012,03,30,02,42,5.20
2012,03,30,02,43,5.20
2012,03,30,02,44,5.20
2012,03,30,02,45,5.20
2012,03,30,02,46,5.20
2012,03,30,02,47,5.20
2012,03,30,02,48,5.20
2012,03,30,02,49,5.20
2012,03,30,02,50,5.20
2012,03,30,02,51,5.20
2012,03,30,02,52,5.20
2012,03,30,02,53,5.30
2012,03,30,02,54,5.30
2012,03,30,02,55,5.30
2012,03,30,02,56,5.30
2012,03,30,02,57,5.20
2012,03,30,02,58,5.20
2012,03,30,02,59,5.20
2012,03,30,03,00,5.20
2012,03,30,03,01,5.20
2012,03,30,03,02,5.20
2012,03,30,03,03,5.20
2012,03,30,03,04,5.20
2012,03,30,03,05,5.20
2012,03,30,03,06,5.20
2012,03,30,03,07,5.20
2012,03,30,03,08,5.20
2012,03,30,03,09,5.20
2012,03,30,03,10,5.20
2012,03,30,03,11,5.20
2012,03,30,03,12,5.20
2012,03,30,03,13,5.20
2012,03,30,03,14,5.20
2012,03,30,03,15,5.20
2012,03,30,03,16,5.20
2012,03,30,03,17,5.20
2012,03,30,03,18,5.20
2012,03,30,03,19,5.20
2012,03,30,03,20,5.20
2012,03,30,03,21,5.20
2012,03,30,03,22,5.20
2012,03,30,03,23,5.20
2012,03,30,03,24,5.20
2012,03,30,03,25,5.20
2012,03,30,03,26,5.20
2012,03,30,03,27,5.20
2012,03,30,03,28,5.20
2012,03,30,03,29,5.20
2012,03,30,03,30,5.20
2012,03,30,03,31,5.20
2012,03,30,03,32,5.20
2012,03,30,03,33,5.20
2012,03,30,03,34,5.20
2012,03,30,03,35,5.20
2012,03,30,03,36,5.20
2012,03,30,03,37,5.20
2012,03,30,03,38,5.20
2012,03,30,03,39,5.20
2012,03,30,03,40,5.20
2012,03,30,03,41,5.20
2012,03,30,03,42,5.20
2012,03,30,03,43,5.20
2012,03,30,03,44,5.20
2012,03,30,03,45,5.20
2012,03,30,03,46,5.20
2012,03,30,03,47,5.20
2012,03,30,03,48,5.20
2012,03,30,03,49,5.10
2012,03,30,03,50,5.10
2012,03,30,03,51,5.10
2012,03,30,03,52,5.10
2012,03,30,03,53,5.10
2012,03,30,03,54,5.10
2012,03,30,03,55,5.10
2012,03,30,03,56,5.10
2012,03,30,03,57,5.10
2012,03,30,03,58,5.10
2012,03,30,03,59,5.10
2012,03,30,04,00,5.10
2012,03,30,04,01,5.10
2012,03,30,04,02,5.00
2012,03,30,04,03,5.00
2012,03,30,04,04,5.00
2012,03,30,04,05,5.00
2012,03,30,04,06,5.00
2012,03,30,04,07,5.00
2012,03,30,04,08,5.00
2012,03,30,04,09,5.00
2012,03,30,04,10,4.90
2012,03,30,04,11,4.90
2012,03,30,04,12,4.90
2012,03,30,04,13,4.90
2012,03,30,04,14,4.90
2012,03,30,04,15,4.90
2012,03,30,04,16,4.90
2012,03,30,04,17,4.90
2012,03,30,04,18,4.90
2012,03,30,04,19,4.90
2012,03,30,04,20,4.90
2012,03,30,04,21,4.90
2012,03,30,04,22,4.90
2012,03,30,04,23,4.90
2012,03,30,04,24,4.90
2012,03,30,04,25,4.90
2012,03,30,04,26,4.90
2012,03,30,04,27,4.90
2012,03,30,04,28,4.90
2012,03,30,04,29,4.90
2012,03,30,04,30,4.90
2012,03,30,04,31,4.90
2012,03,30,04,32,4.90
2012,03,30,04,33,4.90
2012,03,30,04,34,4.90
2012,03,30,04,35,4.90
2012,03,30,04,36,4.90
2012,03,30,04,37,4.90
2012,03,30,04,38,4.90
2012,03,30,04,39,4.90
2012,03,30,04,40,4.90
2012,03,30,04,41,4.90
2012,03,30,04,42,4.90
2012,03,30,04,43,4.90
2012,03,30,04,44,4.90
2012,03,30,04,45,4.90
2012,03,30,04,46,4.90
2012,03,30,04,47,4.90
2012,03,30,04,48,4.90
2012,03,30,04,49,4.90
2012,03,30,04,50,4.90
2012,03,30,04,51,4.90
2012,03,30,04,52,4.90
2012,03,30,04,53,4.90
2012,03,30,04,54,4.90
2012,03,30,04,55,4.90
2012,03,30,04,56,4.90
2012,03,30,04,57,4.90
2012,03,30,04,58,4.90
2012,03,30,04,59,4.90
2012,03,30,05,00,4.90
2012,03,30,05,01,4.90
2012,03,30,05,02,4.90
2012,03,30,05,03,4.90
2012,03,30,05,04,4.90
2012,03,30,05,05,4.90
2012,03,30,05,06,4.90
2012,03,30,05,07,4.90
2012,03,30,05,08,4.90
2012,03,30,05,09,4.90
2012,03,30,05,10,4.80
2012,03,30,05,11,4.80
2012,03,30,05,12,4.80
2012,03,30,05,13,4.80
2012,03,30,05,14,4.80
2012,03,30,05,15,4.80
2012,03,30,05,16,4.80
2012,03,30,05,17,4.80
2012,03,30,05,18,4.80
2012,03,30,05,19,4.80
2012,03,30,05,20,4.80
2012,03,30,05,21,4.80
2012,03,30,05,22,4.70
2012,03,30,05,23,4.70
2012,03,30,05,24,4.70
2012,03,30,05,25,4.70
2012,03,30,05,26,4.70
2012,03,30,05,27,4.70
2012,03,30,05,28,4.70
2012,03,30,05,29,4.70
2012,03,30,05,30,4.70
2012,03,30,05,31,4.70
2012,03,30,05,32,4.70
2012,03,30,05,33,4.70
2012,03,30,05,34,4.70
2012,03,30,05,35,4.70
2012,03,30,05,36,4.70
2012,03,30,05,37,4.70
2012,03,30,05,38,4.70
2012,03,30,05,39,4.60
2012,03,30,05,40,4.60
2012,03,30,05,41,4.60
2012,03,30,05,42,4.60
2012,03,30,05,43,4.60
2012,03,30,05,44,4.60
2012,03,30,05,45,4.50
2012,03,30,05,46,4.50
2012,03,30,05,47,4.50
2012,03,30,05,48,4.50
2012,03,30,05,49,4.50
2012,03,30,05,50,4.40
2012,03,30,05,51,4.40
2012,03,30,05,52,4.40
2012,03,30,05,53,4.40
2012,03,30,05,54,4.40
2012,03,30,05,55,4.40
2012,03,30,05,56,4.40
2012,03,30,05,57,4.40
2012,03,30,05,58,4.40
2012,03,30,05,59,4.40
2012,03,30,06,00,4.40
2012,03,30,06,01,4.40
2012,03,30,06,02,4.30
2012,03,30,06,03,4.30
2012,03,30,06,04,4.30
2012,03,30,06,05,4.30
2012,03,30,06,06,4.30
2012,03,30,06,07,4.30
2012,03,30,06,08,4.30
2012,03,30,06,09,4.30
2012,03,30,06,10,4.30
2012,03,30,06,11,4.30
2012,03,30,06,12,4.30
2012,03,30,06,13,4.30
2012,03,30,06,14,4.30
2012,03,30,06,15,4.30
2012,03,30,06,16,4.30
2012,03,30,06,17,4.30
2012,03,30,06,18,4.40
2012,03,30,06,19,4.40
2012,03,30,06,20,4.40
2012,03,30,06,21,4.40
2012,03,30,06,22,4.40
2012,03,30,06,23,4.40
2012,03,30,06,24,4.40
2012,03,30,06,25,4.40
2012,03,30,06,26,4.40
2012,03,30,06,27,4.40
2012,03,30,06,28,4.40
2012,03,30,06,29,4.40
2012,03,30,06,30,4.40
2012,03,30,06,31,4.40
2012,03,30,06,32,4.40
2012,03,30,06,33,4.40
2012,03,30,06,34,4.40
2012,03,30,06,35,4.40
2012,03,30,06,36,4.40
2012,03,30,06,37,4.40
2012,03,30,06,38,4.40
2012,03,30,06,39,4.40
2012,03,30,06,40,4.40
2012,03,30,06,41,4.40
2012,03,30,06,42,4.40
2012,03,30,06,43,4.40
2012,03,30,06,44,4.40
2012,03,30,06,45,4.40
2012,03,30,06,46,4.40
2012,03,30,06,47,4.40
2012,03,30,06,48,4.40
2012,03,30,06,49,4.40
2012,03,30,06,50,4.40
2012,03,30,06,51,4.40
2012,03,30,06,52,4.40
2012,03,30,06,53,4.40
2012,03,30,06,54,4.40
2012,03,30,06,55,4.40
2012,03,30,06,56,4.40
2012,03,30,06,57,4.40
2012,03,30,06,58,4.40
2012,03,30,06,59,4.40
2012,03,30,07,00,4.40
2012,03,30,07,01,4.40
2012,03,30,07,02,4.30
2012,03,30,07,03,4.30
2012,03,30,07,04,4.30
2012,03,30,07,05,4.30
2012,03,30,07,06,4.30
2012,03,30,07,07,4.30
2012,03,30,07,08,4.30
2012,03,30,07,09,4.30
2012,03,30,07,10,4.30
2012,03,30,07,11,4.40
2012,03,30,07,12,4.40
2012,03,30,07,13,4.40
2012,03,30,07,14,4.40
2012,03,30,07,15,4.40
2012,03,30,07,16,4.40
2012,03,30,07,17,4.40
2012,03,30,07,18,4.40
2012,03,30,07,19,4.40
2012,03,30,07,20,4.30
2012,03,30,07,21,4.40
2012,03,30,07,22,4.40
2012,03,30,07,23,4.40
2012,03,30,07,24,4.40
2012,03,30,07,25,4.40
2012,03,30,07,26,4.40
2012,03,30,07,27,4.40
2012,03,30,07,28,4.40
2012,03,30,07,29,4.40
2012,03,30,07,30,4.40
2012,03,30,07,31,4.40
2012,03,30,07,32,4.40
2012,03,30,07,33,4.40
2012,03,30,07,34,4.40
2012,03,30,07,35,4.50
2012,03,30,07,36,4.50
2012,03,30,07,37,4.50
2012,03,30,07,38,4.50
2012,03,30,07,39,4.50
2012,03,30,07,40,4.50
2012,03,30,07,41,4.50
2012,03,30,07,42,4.50
2012,03,30,07,43,4.50
2012,03,30,07,44,4.50
2012,03,30,07,45,4.50
2012,03,30,07,46,4.50
2012,03,30,07,47,4.60
2012,03,30,07,48,4.60
2012,03,30,07,49,4.50
2012,03,30,07,50,4.50
2012,03,30,07,51,4.50
2012,03,30,07,52,4.50
2012,03,30,07,53,4.50
2012,03,30,07,54,4.50
2012,03,30,07,55,4.60
2012,03,30,07,56,4.60
2012,03,30,07,57,4.60
2012,03,30,07,58,4.50
2012,03,30,07,59,4.50
2012,03,30,08,00,4.50
2012,03,30,08,01,4.50
2012,03,30,08,02,4.50
2012,03,30,08,03,4.50
2012,03,30,08,04,4.50
2012,03,30,08,05,4.50
2012,03,30,08,06,4.50
2012,03,30,08,07,4.50
2012,03,30,08,08,4.50
2012,03,30,08,09,4.50
2012,03,30,08,10,4.50
2012,03,30,08,11,4.50
2012,03,30,08,12,4.50
2012,03,30,08,13,4.50
2012,03,30,08,14,4.50
2012,03,30,08,15,4.50
2012,03,30,08,16,4.50
2012,03,30,08,17,4.50
2012,03,30,08,18,4.50
2012,03,30,08,19,4.50
2012,03,30,08,20,4.50
2012,03,30,08,21,4.50
2012,03,30,08,22,4.50
2012,03,30,12,06,8.50
2012,03,30,12,07,8.50
2012,03,30,12,08,8.40
2012,03,30,12,09,8.40
2012,03,30,12,10,8.40
2012,03,30,12,11,8.30
2012,03,30,12,12,8.20
2012,03,30,12,13,8.10
2012,03,30,12,14,8.10
2012,03,30,12,15,8.00
2012,03,30,12,16,7.90
2012,03,30,12,17,7.90
2012,03,30,12,18,7.90
2012,03,30,12,19,7.90
2012,03,30,12,20,7.80
2012,03,30,12,21,7.90
2012,03,30,12,22,7.90
2012,03,30,12,23,7.90
2012,03,30,12,24,7.80
2012,03,30,12,25,7.80
2012,03,30,12,26,7.80
2012,03,30,12,27,7.70
2012,03,30,12,28,7.70
2012,03,30,12,29,7.60
2012,03,30,12,30,7.60
2012,03,30,12,31,7.60
2012,03,30,12,32,7.60
2012,03,30,12,33,7.50
2012,03,30,12,34,7.40
2012,03,30,12,35,7.40
2012,03,30,12,36,7.40
2012,03,30,12,37,7.40
2012,03,30,12,38,7.30
2012,03,30,12,39,7.30
2012,03,30,12,40,7.30
2012,03,30,12,41,7.20
2012,03,30,12,42,7.20
2012,03,30,12,43,7.20
2012,03,30,12,44,7.30
2012,03,30,12,45,7.30
2012,03,30,12,46,7.40
2012,03,30,12,47,7.40
2012,03,30,12,48,7.30
2012,03,30,12,49,7.40
2012,03,30,12,50,7.40
2012,03,30,12,51,7.40
2012,03,30,12,52,7.40
2012,03,30,12,53,7.40
2012,03,30,12,54,7.40
2012,03,30,12,55,7.30
2012,03,30,12,56,7.20
2012,03,30,12,57,7.20
2012,03,30,12,58,7.20
2012,03,30,12,59,7.20
2012,03,30,13,00,7.10
2012,03,30,13,01,7.10
2012,03,30,13,02,7.00
2012,03,30,13,03,7.00
2012,03,30,13,04,6.90
2012,03,30,13,05,6.90
2012,03,30,13,06,7.00
2012,03,30,13,07,7.00
2012,03,30,13,08,7.00
2012,03,30,13,09,7.00
2012,03,30,13,10,7.00
2012,03,30,13,11,6.90
2012,03,30,13,12,6.90
2012,03,30,13,13,6.90
2012,03,30,13,14,6.80
2012,03,30,13,15,6.90
2012,03,30,13,16,6.90
2012,03,30,13,17,6.90
2012,03,30,13,18,6.90
2012,03,30,13,19,6.90
2012,03,30,13,20,6.90
2012,03,30,13,21,6.90
2012,03,30,13,22,7.00
2012,03,30,13,23,7.00
2012,03,30,13,24,7.00
2012,03,30,13,25,7.00
2012,03,30,13,26,7.00
2012,03,30,13,27,6.90
2012,03,30,13,28,6.90
2012,03,30,13,29,6.90
2012,03,30,13,30,6.80
2012,03,30,13,31,6.80
2012,03,30,13,32,6.80
2012,03,30,13,33,6.70
2012,03,30,13,34,6.70
2012,03,30,13,35,6.70
2012,03,30,13,36,6.70
2012,03,30,13,37,6.70
2012,03,30,13,38,6.60
2012,03,30,13,39,6.50
2012,03,30,13,40,6.50
2012,03,30,13,41,6.40
2012,03,30,13,42,6.30
2012,03,30,13,43,6.20
2012,03,30,13,44,6.20
2012,03,30,13,45,6.20
2012,03,30,13,46,6.10
2012,03,30,13,47,6.10
2012,03,30,13,48,6.10
2012,03,30,13,49,6.00
2012,03,30,13,50,6.00
2012,03,30,13,51,5.90
2012,03,30,13,52,5.90
2012,03,30,13,53,5.90
2012,03,30,13,54,5.90
2012,03,30,13,55,5.80
2012,03,30,13,56,5.80
2012,03,30,13,57,5.70
2012,03,30,13,58,5.70
2012,03,30,13,59,5.60
2012,03,30,14,00,5.60
2012,03,30,14,01,5.60
2012,03,30,14,02,5.60
2012,03,30,14,03,5.50
2012,03,30,14,04,5.50
2012,03,30,14,05,5.50
2012,03,30,14,06,5.50
2012,03,30,14,07,5.50
2012,03,30,14,08,5.40
2012,03,30,14,09,5.40
2012,03,30,14,10,5.40
2012,03,30,14,11,5.40
2012,03,30,14,12,5.40
2012,03,30,14,13,5.40
2012,03,30,14,14,5.40
2012,03,30,14,15,5.40
2012,03,30,14,16,5.30
2012,03,30,14,17,5.30
2012,03,30,14,18,5.30
2012,03,30,14,19,5.20
2012,03,30,14,20,5.20
2012,03,30,14,21,5.10
2012,03,30,14,22,5.10
2012,03,30,14,23,5.10
2012,03,30,14,24,5.00
2012,03,30,14,25,5.00
2012,03,30,14,26,4.90
2012,03,30,14,27,4.90
2012,03,30,14,28,4.90
2012,03,30,14,29,4.90
2012,03,30,14,30,4.80
2012,03,30,14,31,4.80
2012,03,30,14,32,4.80
2012,03,30,14,33,4.80
2012,03,30,14,34,4.80
2012,03,30,14,35,4.80
2012,03,30,14,36,4.70
2012,03,30,14,37,4.70
2012,03,30,14,38,4.70
2012,03,30,14,39,4.70
2012,03,30,14,40,4.70
2012,03,30,14,41,4.70
2012,03,30,14,42,4.60
2012,03,30,14,43,4.60
2012,03,30,14,44,4.50
2012,03,30,14,45,4.50
2012,03,30,14,46,4.50
2012,03,30,14,47,4.50
2012,03,30,14,48,4.50
2012,03,30,14,49,4.40
2012,03,30,14,50,4.40
2012,03,30,14,51,4.40
2012,03,30,14,52,4.40
2012,03,30,14,53,4.40
2012,03,30,14,54,4.40
2012,03,30,14,55,4.40
2012,03,30,14,56,4.40
2012,03,30,14,57,4.40
2012,03,30,14,58,4.30
2012,03,30,14,59,4.30
2012,03,30,15,00,4.30
2012,03,30,15,01,4.30
2012,03,30,15,02,4.30
2012,03,30,15,03,4.30
2012,03,30,15,04,4.30
2012,03,30,15,05,4.30
2012,03,30,15,06,4.30
2012,03,30,15,07,4.30
2012,03,30,15,08,4.30
2012,03,30,15,09,4.30
2012,03,30,15,10,4.30
2012,03,30,15,11,4.30
2012,03,30,15,12,4.30
2012,03,30,15,13,4.30
2012,03,30,15,14,4.30
2012,03,30,15,15,4.30
2012,03,30,15,16,4.30
2012,03,30,15,17,4.30
2012,03,30,15,18,4.40
2012,03,30,15,19,4.40
2012,03,30,15,20,4.40
2012,03,30,15,21,4.40
2012,03,30,15,22,4.30
2012,03,30,15,23,4.40
2012,03,30,15,24,4.30
2012,03,30,15,25,4.30
2012,03,30,15,26,4.40
2012,03,30,15,27,4.40
2012,03,30,15,28,4.40
2012,03,30,15,29,4.40
2012,03,30,15,30,4.40
2012,03,30,15,31,4.50
2012,03,30,15,32,4.50
2012,03,30,15,33,4.60
2012,03,30,15,34,4.60
2012,03,30,15,35,4.60
2012,03,30,15,36,4.60
2012,03,30,15,37,4.70
2012,03,30,15,38,4.70
2012,03,30,15,39,4.70
2012,03,30,15,40,4.70
2012,03,30,15,41,4.70
2012,03,30,15,42,4.70
2012,03,30,15,43,4.80
2012,03,30,15,44,4.80
2012,03,30,15,45,4.80
2012,03,30,15,46,4.80
2012,03,30,15,47,4.90
2012,03,30,15,48,4.80
2012,03,30,15,49,4.80
2012,03,30,15,50,4.80
2012,03,30,15,51,4.80
2012,03,30,15,52,4.80
2012,03,30,15,53,4.80
2012,03,30,15,54,4.90
2012,03,30,15,55,4.90
2012,03,30,15,56,5.00
2012,03,30,15,57,5.10
2012,03,30,15,58,5.20
2012,03,30,15,59,5.20
2012,03,30,16,00,5.20
2012,03,30,16,01,5.30
2012,03,30,16,02,5.20
2012,03,30,16,03,5.10
2012,03,30,16,04,5.20
2012,03,30,16,05,5.30
2012,03,30,16,06,5.30
2012,03,30,16,07,5.40
2012,03,30,16,08,5.50
2012,03,30,16,09,5.50
2012,03,30,16,10,5.60
2012,03,30,16,11,5.70
2012,03,30,16,12,5.70
2012,03,30,16,13,5.70
2012,03,30,16,14,5.80
2012,03,30,16,15,5.80
2012,03,30,16,16,5.80
2012,03,30,16,17,5.90
2012,03,30,16,18,6.00
2012,03,30,16,19,6.00
2012,03,30,16,20,6.00
2012,03,30,16,21,5.90
2012,03,30,16,22,5.90
2012,03,30,16,23,5.90
2012,03,30,16,24,5.90
2012,03,30,16,25,5.90
2012,03,30,16,26,5.90
2012,03,30,16,27,5.90
2012,03,30,16,28,5.90
2012,03,30,16,29,5.90
2012,03,30,16,30,5.90
2012,03,30,16,31,5.90
2012,03,30,16,32,6.00
2012,03,30,16,33,6.00
2012,03,30,16,34,6.00
2012,03,30,16,35,6.10
2012,03,30,16,36,6.00
2012,03,30,16,37,6.00
2012,03,30,16,38,5.90
2012,03,30,16,39,5.80
2012,03,30,16,40,5.90
2012,03,30,16,41,5.90
2012,03,30,16,42,5.90
2012,03,30,16,43,5.80
2012,03,30,16,44,5.70
2012,03,30,16,45,5.70
2012,03,30,16,46,5.70
2012,03,30,16,47,5.70
2012,03,30,16,48,5.70
2012,03,30,16,49,5.60
2012,03,30,16,50,5.60
2012,03,30,16,51,5.60
2012,03,30,16,52,5.60
2012,03,30,16,53,5.60
2012,03,30,16,54,5.60
2012,03,30,16,55,5.70
2012,03,30,16,56,5.70
2012,03,30,16,57,5.60
2012,03,30,16,58,5.60
2012,03,30,16,59,5.50
2012,03,30,17,00,5.60
2012,03,30,17,01,5.60
2012,03,30,17,02,5.60
2012,03,30,17,03,5.60
2012,03,30,17,04,5.60
2012,03,30,17,05,5.60
2012,03,30,17,06,5.60
2012,03,30,17,07,5.60
2012,03,30,17,08,5.60
2012,03,30,17,09,5.60
2012,03,30,17,10,5.60
2012,03,30,17,11,5.60
2012,03,30,17,12,5.70
2012,03,30,17,13,5.70
2012,03,30,17,14,5.80
2012,03,30,17,15,5.80
2012,03,30,17,16,5.80
2012,03,30,17,17,5.90
2012,03,30,17,18,5.90
2012,03,30,17,19,5.90
2012,03,30,17,20,6.00
2012,03,30,17,21,6.00
2012,03,30,17,22,6.00
2012,03,30,17,23,5.90
2012,03,30,17,24,5.90
2012,03,30,17,25,5.90
2012,03,30,17,26,5.90
2012,03,30,17,27,5.90
2012,03,30,17,28,5.90
2012,03,30,17,29,5.90
2012,03,30,17,30,5.90
2012,03,30,17,31,5.90
2012,03,30,17,32,5.90
2012,03,30,17,33,5.90
2012,03,30,17,34,5.80
2012,03,30,17,35,5.90
2012,03,30,17,36,5.90
2012,03,30,17,37,5.90
2012,03,30,17,38,5.90
2012,03,30,17,39,5.80
2012,03,30,17,40,5.80
2012,03,30,17,41,5.90
2012,03,30,17,42,5.90
2012,03,30,17,43,5.90
2012,03,30,17,44,5.90
2012,03,30,17,45,5.90
2012,03,30,17,46,5.90
2012,03,30,17,47,5.90
2012,03,30,17,48,5.80
2012,03,30,17,49,5.80
2012,03,30,17,50,5.80
2012,03,30,17,51,5.80
2012,03,30,17,52,5.90
2012,03,30,17,53,5.90
2012,03,30,17,54,5.90
2012,03,30,17,55,5.90
2012,03,30,17,56,5.90
2012,03,30,17,57,6.00
2012,03,30,17,58,6.10
2012,03,30,17,59,6.10
2012,03,30,18,00,6.10
2012,03,30,18,01,6.10
2012,03,30,18,02,6.20
2012,03,30,18,03,6.20
2012,03,30,18,04,6.30
2012,03,30,18,05,6.40
2012,03,30,18,06,6.40
2012,03,30,18,07,6.40
2012,03,30,18,08,6.40
2012,03,30,18,09,6.40
2012,03,30,18,10,6.30
2012,03,30,18,11,6.30
2012,03,30,18,12,6.40
2012,03,30,18,13,6.40
2012,03,30,18,14,6.40
2012,03,30,18,15,6.30
2012,03,30,18,16,6.30
2012,03,30,18,17,6.30
2012,03,30,18,18,6.30
2012,03,30,18,19,6.30
2012,03,30,18,20,6.30
2012,03,30,18,21,6.30
2012,03,30,18,22,6.30
2012,03,30,18,23,6.30
2012,03,30,18,24,6.30
2012,03,30,18,25,6.30
2012,03,30,18,26,6.20
2012,03,30,18,27,6.20
2012,03,30,18,28,6.10
2012,03,30,18,29,6.10
2012,03,30,18,30,6.10
2012,03,30,18,31,6.10
2012,03,30,18,32,6.10
2012,03,30,18,33,6.10
2012,03,30,18,34,6.10
2012,03,30,18,35,6.10
2012,03,30,18,36,6.10
2012,03,30,18,37,6.00
2012,03,30,18,38,6.00
2012,03,30,18,39,6.00
2012,03,30,18,40,6.00
2012,03,30,18,41,6.00
2012,03,30,18,42,5.90
2012,03,30,18,43,5.90
2012,03,30,18,44,5.90
2012,03,30,18,45,5.80
2012,03,30,18,46,5.80
2012,03,30,18,47,5.70
2012,03,30,18,48,5.70
2012,03,30,18,49,5.70
2012,03,30,18,50,5.70
2012,03,30,18,51,5.70
2012,03,30,18,52,5.70
2012,03,30,18,53,5.70
2012,03,30,18,54,5.70
2012,03,30,18,55,5.70
2012,03,30,18,56,5.70
2012,03,30,18,57,5.70
2012,03,30,18,58,5.70
2012,03,30,18,59,5.60
2012,03,30,19,00,5.60
2012,03,30,19,01,5.60
2012,03,30,19,02,5.60
2012,03,30,19,03,5.50
2012,03,30,19,04,5.50
2012,03,30,19,05,5.50
2012,03,30,19,06,5.50
2012,03,30,19,07,5.50
2012,03,30,19,08,5.50
2012,03,30,19,09,5.40
2012,03,30,19,10,5.40
2012,03,30,19,11,5.40
2012,03,30,19,12,5.40
2012,03,30,19,13,5.40
2012,03,30,19,14,5.30
2012,03,30,19,15,5.30
2012,03,30,19,16,5.30
2012,03,30,19,17,5.30
2012,03,30,19,18,5.30
2012,03,30,19,19,5.30
2012,03,30,19,20,5.20
2012,03,30,19,21,5.20
2012,03,30,19,22,5.20
2012,03,30,19,23,5.20
2012,03,30,19,24,5.20
2012,03,30,19,25,5.20
2012,03,30,19,26,5.10
2012,03,30,19,27,5.10
2012,03,30,19,28,5.10
2012,03,30,19,29,5.10
2012,03,30,19,30,5.00
2012,03,30,19,31,5.00
2012,03,30,19,32,5.00
2012,03,30,19,33,4.90
2012,03,30,19,34,4.90
2012,03,30,19,35,4.90
2012,03,30,19,36,4.90
2012,03,30,19,37,4.90
2012,03,30,19,38,4.90
2012,03,30,19,39,4.80
2012,03,30,19,40,4.80
2012,03,30,19,41,4.80
2012,03,30,19,42,4.80
2012,03,30,19,43,4.80
2012,03,30,19,44,4.80
2012,03,30,19,45,4.80
2012,03,30,19,46,4.70
2012,03,30,19,47,4.70
2012,03,30,19,48,4.70
2012,03,30,19,49,4.70
2012,03,30,19,50,4.70
2012,03,30,19,51,4.70
2012,03,30,19,52,4.60
2012,03,30,19,53,4.60
2012,03,30,19,54,4.60
2012,03,30,19,55,4.60
2012,03,30,19,56,4.60
2012,03,30,19,57,4.60
2012,03,30,19,58,4.60
2012,03,30,19,59,4.50
2012,03,30,20,00,4.50
2012,03,30,20,01,4.50
2012,03,30,20,02,4.50
2012,03,30,20,03,4.50
2012,03,30,20,04,4.50
2012,03,30,20,05,4.40
2012,03,30,20,06,4.40
2012,03,30,20,07,4.40
2012,03,30,20,08,4.40
2012,03,30,20,09,4.40
2012,03,30,20,10,4.40
2012,03,30,20,11,4.40
2012,03,30,20,12,4.40
2012,03,30,20,13,4.40
2012,03,30,20,14,4.30
2012,03,30,20,15,4.30
2012,03,30,20,16,4.30
2012,03,30,20,17,4.30
2012,03,30,20,18,4.30
2012,03,30,20,19,4.30
2012,03,30,20,20,4.30
2012,03,30,20,21,4.30
2012,03,30,20,22,4.30
2012,03,30,20,23,4.30
2012,03,30,20,24,4.30
2012,03,30,20,25,4.30
2012,03,30,20,26,4.30
2012,03,30,20,27,4.30
2012,03,30,20,28,4.30
2012,03,30,20,29,4.30
2012,03,30,20,30,4.30
2012,03,30,20,31,4.30
2012,03,30,20,32,4.30
2012,03,30,20,33,4.30
2012,03,30,20,34,4.30
2012,03,30,20,35,4.30
2012,03,30,20,36,4.30
2012,03,30,20,37,4.30
2012,03,30,20,38,4.30
2012,03,30,20,39,4.30
2012,03,30,20,40,4.30
2012,03,30,20,41,4.30
2012,03,30,20,42,4.30
2012,03,30,20,43,4.30
2012,03,30,20,44,4.30
2012,03,30,20,45,4.30
2012,03,30,20,46,4.30
2012,03,30,20,47,4.30
2012,03,30,20,48,4.30
2012,03,30,20,49,4.30
2012,03,30,20,50,4.30
2012,03,30,20,51,4.30
2012,03,30,20,52,4.30
2012,03,30,20,53,4.30
2012,03,30,20,54,4.30
2012,03,30,20,55,4.20
2012,03,30,20,56,4.20
2012,03,30,20,57,4.20
2012,03,30,20,58,4.20
2012,03,30,20,59,4.20
2012,03,30,21,00,4.20
2012,03,30,21,01,4.20
2012,03,30,21,02,4.20
2012,03,30,21,03,4.20
2012,03,30,21,04,4.10
2012,03,30,21,05,4.10
2012,03,30,21,06,4.10
2012,03,30,21,07,4.10
2012,03,30,21,08,4.10
2012,03,30,21,09,4.10
2012,03,30,21,10,4.10
2012,03,30,21,11,4.10
2012,03,30,21,12,4.10
2012,03,30,21,13,4.00
2012,03,30,21,14,4.00
2012,03,30,21,15,4.00
2012,03,30,21,16,4.00
2012,03,30,21,17,3.90
2012,03,30,21,18,3.90
2012,03,30,21,19,3.90
2012,03,30,21,20,3.90
2012,03,30,21,21,3.90
2012,03,30,21,22,3.90
2012,03,30,21,23,3.90
2012,03,30,21,24,3.90
2012,03,30,21,25,3.90
2012,03,30,21,26,3.90
2012,03,30,21,27,3.90
2012,03,30,21,28,3.80
2012,03,30,21,29,3.80
2012,03,30,21,30,3.80
2012,03,30,21,31,3.80
2012,03,30,21,32,3.80
2012,03,30,21,33,3.80
2012,03,30,21,34,3.80
2012,03,30,21,35,3.80
2012,03,30,21,36,3.80
2012,03,30,21,37,3.80
2012,03,30,21,38,3.80
2012,03,30,21,39,3.80
2012,03,30,21,40,3.80
2012,03,30,21,41,3.80
2012,03,30,21,42,3.80
2012,03,30,21,43,3.80
2012,03,30,21,44,3.70
2012,03,30,21,45,3.70
2012,03,30,21,46,3.70
2012,03,30,21,47,3.70
2012,03,30,21,48,3.70
2012,03,30,21,49,3.70